| time (UTC) | temp F | wind direction | speed MPH | gust MPH | rain 1hr in | rain 24hr in | rain mn in | humidity % | barometer mb |
| 20260507212802 | 53 | 353 | 4.0 | 5.0 | 0.00 | 0.00 | 0.00 | 92 | 1014.2 |
| 20260507211302 | 53 | 64 | 4.0 | 6.0 | 0.00 | 0.00 | 0.00 | 95 | 1014.2 |
| 20260507205802 | 54 | 38 | 5.0 | 6.0 | 0.00 | 0.00 | 0.00 | 95 | 1014.1 |
| 20260507204301 | 54 | 23 | 6.0 | 7.0 | 0.00 | 0.00 | 0.00 | 96 | 1014.3 |
| 20260507202801 | 54 | 345 | 3.0 | 3.0 | 0.00 | 0.00 | 0.00 | 96 | 1014.5 |
| 20260507201301 | 55 | 60 | 4.0 | 6.0 | 0.00 | 0.00 | 0.00 | 95 | 1014.2 |
| 20260507195800 | 55 | 328 | 2.0 | 3.0 | 0.00 | 0.00 | 0.00 | 95 | 1014.1 |
| 20260507194300 | 55 | 7 | 5.0 | 6.0 | 0.00 | 0.00 | 0.00 | 94 | 1013.7 |
| 20260507192759 | 56 | 26 | 5.0 | 8.0 | 0.00 | 0.00 | 0.00 | 94 | 1013.9 |
| 20260507191259 | 57 | 268 | 0.0 | 0.0 | 0.00 | 0.00 | 0.00 | 93 | 1013.9 |
| 20260507185759 | 58 | 260 | 0.0 | 0.0 | 0.00 | 0.00 | 0.00 | 92 | 1013.9 |
| 20260507184258 | 58 | 264 | 0.0 | 0.0 | 0.00 | 0.00 | 0.00 | 92 | 1013.8 |
| 20260507182758 | 58 | 223 | 3.0 | 3.0 | 0.00 | 0.00 | 0.00 | 91 | 1014.1 |
| 20260507181258 | 58 | 234 | 2.0 | 2.0 | 0.00 | 0.00 | 0.00 | 90 | 1013.8 |
| 20260507175757 | 59 | 237 | 3.0 | 4.0 | 0.00 | 0.00 | 0.00 | 86 | 1014.0 |
| 20260507174257 | 60 | 232 | 4.0 | 5.0 | 0.00 | 0.00 | 0.00 | 86 | 1014.1 |
| 20260507172757 | 61 | 242 | 3.0 | 4.0 | 0.00 | 0.00 | 0.00 | 84 | 1014.1 |
| 20260507171256 | 61 | 231 | 7.0 | 7.0 | 0.00 | 0.00 | 0.00 | 85 | 1014.0 |
| 20260507165756 | 62 | 216 | 6.0 | 6.0 | 0.00 | 0.00 | 0.00 | 83 | 1013.8 |
| 20260507164256 | 61 | 196 | 5.0 | 6.0 | 0.00 | 0.00 | 0.00 | 82 | 1013.7 |
| 20260507162756 | 63 | 230 | 3.0 | 4.0 | 0.00 | 0.00 | 0.00 | 81 | 1013.8 |
| 20260507161255 | 61 | 207 | 4.0 | 5.0 | 0.00 | 0.00 | 0.00 | 80 | 1013.8 |
| 20260507155755 | 63 | 252 | 3.0 | 3.0 | 0.00 | 0.00 | 0.00 | 86 | 1013.7 |
| 20260507154255 | 64 | 188 | 8.0 | 10.0 | 0.00 | 0.00 | 0.00 | 82 | 1014.0 |
| 20260507152754 | 62 | 210 | 8.0 | 9.0 | 0.00 | 0.00 | 0.00 | 85 | 1014.0 |
| 20260507151254 | 64 | 209 | 7.0 | 10.0 | 0.00 | 0.00 | 0.00 | 82 | 1013.8 |
| 20260507145754 | 62 | 224 | 5.0 | 6.0 | 0.00 | 0.00 | 0.00 | 84 | 1014.0 |
| 20260507144254 | 61 | 203 | 9.0 | 11.0 | 0.00 | 0.00 | 0.00 | 84 | 1014.0 |
| 20260507142753 | 63 | 234 | 8.0 | 12.0 | 0.00 | 0.00 | 0.00 | 84 | 1014.2 |
| 20260507141253 | 63 | 209 | 6.0 | 8.0 | 0.00 | 0.00 | 0.00 | 83 | 1014.1 |
| 20260507135753 | 61 | 175 | 12.0 | 13.0 | 0.00 | 0.00 | 0.00 | 88 | 1014.4 |
| 20260507134252 | 61 | 283 | 7.0 | 10.0 | 0.00 | 0.00 | 0.00 | 87 | 1014.3 |
| 20260507132752 | 62 | 228 | 13.0 | 17.0 | 0.00 | 0.00 | 0.00 | 86 | 1014.4 |
| 20260507131252 | 62 | 201 | 12.0 | 14.0 | 0.00 | 0.00 | 0.00 | 85 | 1014.3 |
| 20260507125752 | 63 | 217 | 6.0 | 8.0 | 0.00 | 0.00 | 0.00 | 84 | 1014.5 |
| 20260507124252 | 63 | 203 | 8.0 | 13.0 | 0.00 | 0.00 | 0.00 | 85 | 1014.2 |
| 20260507122751 | 63 | 235 | 7.0 | 8.0 | 0.00 | 0.00 | 0.00 | 83 | 1014.4 |
| 20260507121251 | 64 | 206 | 9.0 | 11.0 | 0.00 | 0.00 | 0.00 | 82 | 1014.0 |
| 20260507115751 | 65 | 208 | 10.0 | 14.0 | 0.00 | 0.00 | 0.00 | 80 | 1014.3 |
| 20260507114251 | 62 | 237 | 9.0 | 11.0 | 0.00 | 0.00 | 0.00 | 86 | 1014.3 |
| 20260507112751 | 63 | 237 | 7.0 | 10.0 | 0.00 | 0.00 | 0.00 | 83 | 1014.5 |
| 20260507111251 | 63 | 209 | 12.0 | 14.0 | 0.00 | 0.00 | 0.00 | 81 | 1014.4 |
| 20260507105750 | 63 | 224 | 9.0 | 12.0 | 0.00 | 0.00 | 0.00 | 81 | 1014.4 |
| 20260507104250 | 63 | 195 | 4.0 | 6.0 | 0.00 | 0.00 | 0.00 | 81 | 1014.4 |
| 20260507102749 | 62 | 236 | 6.0 | 9.0 | 0.00 | 0.00 | 0.00 | 84 | 1014.7 |
| 20260507101249 | 62 | 211 | 7.0 | 10.0 | 0.00 | 0.00 | 0.00 | 82 | 1014.4 |
| 20260507095749 | 63 | 203 | 12.0 | 16.0 | 0.00 | 0.00 | 0.00 | 81 | 1014.4 |
| 20260507094248 | 63 | 215 | 8.0 | 10.0 | 0.00 | 0.00 | 0.00 | 78 | 1014.5 |
| 20260507092748 | 63 | 192 | 5.0 | 7.0 | 0.00 | 0.00 | 0.00 | 80 | 1014.3 |
| 20260507091248 | 63 | 198 | 7.0 | 8.0 | 0.00 | 0.00 | 0.00 | 81 | 1014.3 |
| 20260507085747 | 63 | 189 | 5.0 | 8.0 | 0.00 | 0.00 | 0.00 | 81 | 1014.6 |
| 20260507084247 | 62 | 220 | 13.0 | 16.0 | 0.00 | 0.00 | 0.00 | 82 | 1014.0 |
| 20260507082747 | 63 | 272 | 6.0 | 9.0 | 0.00 | 0.00 | 0.00 | 80 | 1014.1 |
| 20260507081246 | 63 | 244 | 7.0 | 9.0 | 0.00 | 0.00 | 0.00 | 81 | 1013.8 |
| 20260507075746 | 63 | 212 | 7.0 | 10.0 | 0.00 | 0.00 | 0.00 | 81 | 1014.1 |
| 20260507074246 | 59 | 249 | 1.0 | 2.0 | 0.00 | 0.00 | 0.00 | 85 | 1013.7 |
| 20260507072745 | 59 | 233 | 1.0 | 2.0 | 0.00 | 0.00 | 0.00 | 85 | 1013.8 |
| 20260507071245 | 60 | 266 | 1.0 | 1.0 | 0.00 | 0.00 | 0.00 | 84 | 1013.7 |
| 20260507065744 | 60 | 186 | 1.0 | 1.0 | 0.00 | 0.00 | 0.00 | 82 | 1013.6 |
| 20260507064244 | 60 | 306 | 1.0 | 1.0 | 0.00 | 0.00 | 0.00 | 82 | 1013.6 |
| 20260507062744 | 57 | 197 | 1.0 | 2.0 | 0.00 | 0.00 | 0.00 | 84 | 1013.7 |
| 20260507061243 | 59 | 69 | 2.0 | 3.0 | 0.00 | 0.00 | 0.00 | 84 | 1013.3 |
| 20260507055743 | 60 | 7 | 3.0 | 3.0 | 0.00 | 0.00 | 0.00 | 80 | 1013.1 |
| 20260507054243 | 59 | 243 | 2.0 | 3.0 | 0.00 | 0.00 | 0.00 | 83 | 1013.1 |
| 20260507052742 | 58 | 311 | 1.0 | 2.0 | 0.00 | 0.00 | 0.00 | 85 | 1013.1 |
| 20260507051242 | 55 | 100 | 2.0 | 3.0 | 0.00 | 0.00 | 0.00 | 89 | 1012.8 |
| 20260507045742 | 56 | 26 | 3.0 | 4.0 | 0.00 | 0.00 | 0.00 | 87 | 1012.8 |
| 20260507044242 | 54 | 46 | 2.0 | 3.0 | 0.00 | 0.00 | 0.00 | 91 | 1012.5 |
| 20260507042741 | 54 | 302 | 1.0 | 1.0 | 0.00 | 0.00 | 0.00 | 92 | 1012.2 |
| 20260507041241 | 54 | 339 | 1.0 | 1.0 | 0.00 | 0.00 | 0.00 | 93 | 1012.6 |
| 20260507035741 | 54 | 23 | 2.0 | 3.0 | 0.00 | 0.00 | 0.00 | 92 | 1012.4 |
| 20260507034241 | 54 | 246 | 1.0 | 1.0 | 0.00 | 0.00 | 0.00 | 93 | 1012.3 |
| 20260507032741 | 54 | 316 | 0.0 | 1.0 | 0.00 | 0.00 | 0.00 | 94 | 1012.3 |
| 20260507031241 | 54 | 123 | 3.0 | 3.0 | 0.00 | 0.00 | 0.00 | 93 | 1012.3 |
| 20260507025741 | 54 | 116 | 2.0 | 3.0 | 0.00 | 0.00 | 0.00 | 94 | 1012.4 |
| 20260507024241 | 54 | 267 | 0.0 | 1.0 | 0.00 | 0.00 | 0.00 | 93 | 1012.4 |
| 20260507022740 | 55 | 86 | 2.0 | 3.0 | 0.00 | 0.00 | 0.00 | 93 | 1012.3 |
| 20260507021240 | 54 | 333 | 1.0 | 2.0 | 0.00 | 0.00 | 0.00 | 93 | 1012.3 |
| 20260507015740 | 55 | 293 | 1.0 | 2.0 | 0.00 | 0.00 | 0.00 | 91 | 1012.5 |
| 20260507014240 | 54 | 84 | 2.0 | 2.0 | 0.00 | 0.00 | 0.00 | 94 | 1012.5 |
| 20260507012740 | 55 | 52 | 3.0 | 4.0 | 0.00 | 0.00 | 0.00 | 93 | 1012.3 |
| 20260507011240 | 55 | 338 | 1.0 | 1.0 | 0.00 | 0.00 | 0.00 | 92 | 1012.5 |
| 20260507005740 | 55 | 333 | 1.0 | 2.0 | 0.00 | 0.00 | 0.00 | 92 | 1012.5 |
| 20260507004240 | 56 | 185 | 1.0 | 2.0 | 0.00 | 0.00 | 0.00 | 90 | 1012.6 |
| 20260507002739 | 55 | 74 | 2.0 | 2.0 | 0.00 | 0.00 | 0.00 | 92 | 1012.6 |
| 20260507001239 | 56 | 131 | 3.0 | 4.0 | 0.00 | 0.00 | 0.00 | 90 | 1012.4 |
| 20260506235739 | 56 | 345 | 1.0 | 2.0 | 0.00 | 0.00 | 0.00 | 91 | 1012.7 |
| 20260506234239 | 56 | 257 | 2.0 | 2.0 | 0.00 | 0.00 | 0.00 | 90 | 1012.6 |
| 20260506232739 | 55 | 321 | 1.0 | 2.0 | 0.00 | 0.00 | 0.00 | 91 | 1012.8 |
| 20260506231238 | 55 | 59 | 2.0 | 3.0 | 0.00 | 0.00 | 0.00 | 93 | 1012.6 |
| 20260506225738 | 56 | 163 | 3.0 | 3.0 | 0.00 | 0.00 | 0.00 | 91 | 1012.6 |
| 20260506224238 | 56 | 253 | 1.0 | 1.0 | 0.00 | 0.00 | 0.00 | 90 | 1012.8 |
| 20260506222738 | 55 | 64 | 2.0 | 2.0 | 0.00 | 0.00 | 0.00 | 91 | 1012.6 |
| 20260506221238 | 56 | 121 | 3.0 | 4.0 | 0.00 | 0.00 | 0.00 | 90 | 1012.6 |
| 20260506215737 | 56 | 177 | 2.0 | 2.0 | 0.00 | 0.00 | 1.43 | 90 | 1012.9 |
| 20260506214237 | 56 | 248 | 1.0 | 2.0 | 0.00 | 0.00 | 1.43 | 90 | 1012.7 |